Regional Weather Roundup
Issued by NWS Green Bay, WI

Home | Current Version | Previous Version | Graphics & Text | Print | Product List | Glossary Off
Versions: 1 2 3 4 5 6 7 8 9 10 11 12 13 14 15 16 17 18 19 20 21 22 23 24 25 26 27 28 29 30 31 32 33 34 35 36 37 38 39 40 41 42 43 44 45 46 47 48 49 50

000
ASUS43 KGRB 201801
RWRGRB

NORTH-CENTRAL AND NORTHEAST WISCONSIN REGIONAL WEATHER ROUNDUP
NATIONAL WEATHER SERVICE GREEN BAY WI
100 PM CDT WED SEP 20 2017

WIZ005-009-010>012-018-019-201900-
NORTH CENTRAL WISCONSIN

CITY           SKY/WX    TMP DP  RH WIND       PRES   REMARKS
IRONWOOD       CLOUDY    68  64  87 S15G28    29.74R
MANITOWISH WTR NOT AVBL
ARBOR VITAE    NOT AVBL
EAGLE RIVER    NOT AVBL
LAND O LAKES   NOT AVBL
RHINELANDER    CLOUDY    65  64  97 S9G21     29.83S FOG
PHILLIPS       CLOUDY    66  65  97 SE10      29.79S
ANTIGO         NOT AVBL
TOMAHAWK       NOT AVBL
MERRILL        NOT AVBL
$$

WIZ013-073-201900-
NORTHEAST WISCONSIN

CITY           SKY/WX    TMP DP  RH WIND       PRES   REMARKS
IRON MOUNTAIN  CLOUDY    68  62  81 S13G20    29.82F
MARINETTE      CLOUDY    71  65  81 S17G26    29.85F
$$

WIZ017-030-035>037-045-201900-
CENTRAL WISCONSIN

CITY           SKY/WX    TMP DP  RH WIND       PRES   REMARKS
MEDFORD        NOT AVBL
WAUSAU         CLOUDY    70  66  87 SE7       29.80F
MOSINEE        NOT AVBL
MARSHFIELD     CLOUDY    74  65  73 SE12      29.80S
WISC RAPIDS    CLOUDY    78  69  73 S7        29.81S
STEVENS POINT  NOT AVBL
WAUPACA        NOT AVBL
SHAWANO        NOT AVBL
CLINTONVILLE   NOT AVBL
WAUTOMA        PTSUNNY   83  70  64 S15       29.80F
$$

WIZ038-039-048-051-201900-
FOX VALLEY

CITY           SKY/WX    TMP DP  RH WIND       PRES   REMARKS
NWS GREEN BAY  CLOUDY    77  67  71 SE23G32   29.84F
APPLETON       MOSUNNY   79  64  61 SE16G23   29.82F
OSHKOSH        MOSUNNY   79  68  69 SE18G28   29.82F
FOND DU LAC    CLOUDY    82  66  58 SE20      29.84F
$$

WIZ022-050-052-201900-
EAST CENTRAL WISCONSIN

CITY           SKY/WX    TMP DP  RH WIND       PRES   REMARKS
EPHRAIM        NOT AVBL
WASHINGTON ISL NOT AVBL
STURGEON BAY   CLOUDY    69  65  86 SE20G25   29.88F
MANITOWOC      PTSUNNY   70  66  87 SE22G29   29.90F
SHEBOYGAN      CLOUDY    71  68  90 SE10G20   29.91F
$$

LMZ563-521-522-541>543-201900-
LAKESHORE

STATION/POSITION TIME  TEMP    WIND        PRES    VSBY  WAVE
                       AIR SEA DIR/SP/G                  HT/PER
                 (UTC) (F)     (DEG/KT/KT) (MB)    (MI)  (FT/S)
SHEBOYGAN LKSHOR 1700   66     150/ 17/ 19 1012.8F
KEWAUNEE LKSHORE 1730   63     150/ 13/ 14 1012.0F
NORTHPORT PIER   1740   66     160/ 10/ 21 1012.2F
N MID LAKE BUOY  1650   65 65  150/  6/  6 1014.5R         2/ 4
S GREEN BAY BUOY 1730   69 66  150/ 14/ 17 1011.4F
MENOMINEE LKSHOR 1724   67     140/ 20/ 23 1010.7
$$




USA.gov is the U.S. government's official web portal to all federal, state and local government web resources and services.